This is the latest recevied weather packets stored in our database for station/object K5NWZ. If no packets are shown the sender has not sent any weather packets the latest 10 day(s).
| Time | Temp. | Humidity | Pressure | Rain* | Wind** | Luminosity | Snow |
|---|---|---|---|---|---|---|---|
| 1788092952 | 18.89° C | 62% | 1026.2 hPa | 0 mm | - | 2 W/m² | - |
| 1788092647 | 18.33° C | 62% | 1026.6 hPa | 0 mm | - | 1 W/m² | - |
| 1788092347 | 18.89° C | 60% | 1026.6 hPa | 0 mm | - | 1 W/m² | - |
| 1788092042 | 18.89° C | 60% | 1026.3 hPa | 0 mm | - | 0 W/m² | - |
| 1788091737 | 18.89° C | 60% | 1026.2 hPa | 0 mm | - | 0 W/m² | - |
| 1788091432 | 18.89° C | 60% | 1026 hPa | 0 mm | - | 0 W/m² | - |
| 1788091128 | 18.89° C | 61% | 1026.2 hPa | 0 mm | - | 0 W/m² | - |
| 1788090825 | 18.89° C | 60% | 1026.2 hPa | 0 mm | - | 0 W/m² | - |
| 1788090519 | 18.89° C | 59% | 1026.1 hPa | 0 mm | - | 0 W/m² | - |
| 1788090216 | 18.89° C | 61% | 1026.2 hPa | 0 mm | - | 0 W/m² | - |
| 1788089911 | 18.89° C | 62% | 1026.2 hPa | 0 mm | - | 0 W/m² | - |
| 1788089605 | 18.89° C | 61% | 1026 hPa | 0 mm | - | 0 W/m² | - |
| 1788089302 | 18.89° C | 64% | 1025.9 hPa | 0 mm | - | 0 W/m² | - |
| 1788088997 | 18.89° C | 63% | 1025.9 hPa | 0 mm | - | 0 W/m² | - |
| 1788088693 | 18.89° C | 62% | 1025.9 hPa | 0 mm | - | 0 W/m² | - |
| 1788088389 | 18.89° C | 62% | 1025.9 hPa | 0 mm | - | 0 W/m² | - |
| 1788088089 | 19.44° C | 60% | 1025.9 hPa | 0 mm | - | 0 W/m² | - |
| 1788087785 | 19.44° C | 60% | 1025.8 hPa | 0 mm | - | 0 W/m² | - |
| 1788087484 | 18.89° C | 58% | 1025.6 hPa | 0 mm | - | 0 W/m² | - |
| 1788087181 | 18.89° C | 58% | 1025.5 hPa | 0 mm | - | 0 W/m² | - |
| 1788086876 | 19.44° C | 58% | 1025.6 hPa | 0 mm | - | 0 W/m² | - |
| 1788086573 | 19.44° C | 58% | 1025.8 hPa | 0 mm | - | 0 W/m² | - |
| 1788086272 | 20° C | 57% | 1025.9 hPa | 0 mm | - | 0 W/m² | - |
| 1788085968 | 19.44° C | 59% | 1025.9 hPa | 0 mm | - | 0 W/m² | - |
| 1788085666 | 19.44° C | 57% | 1026 hPa | 0 mm | - | 0 W/m² | - |
* Rain latest hour (hover to see other rain measurements)
** Current wind speed in m/s (hover to see current wind gust speed)